Regional Weather Roundup
Issued by NWS

Home | Current Version | Previous Version | Graphics & Text | Print | Product List | Glossary On
Versions: 1 2 3 4 5 6 7 8 9 10 11 12 13 14 15 16 17 18 19 20 21 22 23 24 25 26 27 28 29 30 31 32 33 34 35 36 37 38 39 40 41 42 43 44 45 46 47 48 49 50
000
ASUS43 KLOT 022010
RWRIL

ILLINOIS REGIONAL WEATHER ROUNDUP
NATIONAL WEATHER SERVICE CHICAGO/ROMEOVILLE IL
300 PM CDT TUE SEP 02 2014

NOTE: "FAIR" INDICATES FEW OR NO CLOUDS BELOW 12,000 FEET WITH NO
SIGNIFICANT WEATHER AND/OR OBSTRUCTIONS TO VISIBILITY.

* THESE STATIONS ARE NOT UNDER NWS QUALITY CONTROL. THEY ALSO MAY NOT
  REPORT WEATHER SUCH AS PRECIPITATION OR FOG.

ILZ001-002-007-009-015-016-024-022100-
NORTHWEST ILLINOIS

CITY           SKY/WX    TMP DP  RH WIND       PRES   REMARKS
MOLINE         MOSUNNY   82  61  48 W8G18     29.93F HX  83
STERLING*      MOSUNNY   82  63  51 NW10      29.94S HX  83
SAVANNA*       MOSUNNY   81  61  50 SW12      29.93S HX  82
$$

ILZ003-004-008-010-011-017-018-022100-
NORTH CENTRAL ILLINOIS

CITY           SKY/WX    TMP DP  RH WIND       PRES   REMARKS
ROCKFORD       MOSUNNY   80  60  50 W10       29.93F HX  81
FREEPORT*      SUNNY     78  63  60 W13       29.95S HX  80
ROCHELLE*      SUNNY     78  60  52 W10       29.93F HX  80
DE KALB*       SUNNY     76  57  51 W12       29.94F
PERU*          MOSUNNY   81  64  57 W10       29.94S HX  82
$$

ILZ005-006-012>014-019>023-022100-
NORTHEAST ILLINOIS

CITY           SKY/WX    TMP DP  RH WIND       PRES   REMARKS
CHICAGO-OHARE  PTSUNNY   82  55  39 NW13      29.90S HX  81
CHICAGO-MIDWAY MOSUNNY   84  56  38 W14G21    29.90S HX  83
AURORA         SUNNY     81  59  47 W10G16    29.93R HX  81
LANSING*         N/A    N/A N/A N/A MISG        N/A
JOLIET*        SUNNY     82  56  41 W9        29.93S HX  81
WAUKEGAN       MOSUNNY   80  56  43 VRB5G17   29.90S HX  80
DUPAGE AIRPORT MOSUNNY   81  58  45 W12G18    29.92R HX  81
KANKAKEE*      MOSUNNY   81  66  59 W10       29.93S HX  83
WHEELING       MOSUNNY   82  58  43 W8        29.92S HX  82
MORRIS*        SUNNY     83  62  50 W7        29.93R HX  84
ROMEOVILLE*    SUNNY     81  57  44 W6        29.92S HX  81
NORTHERLY ISL    N/A     75  66  73 N5          N/A
$$

LMZ740>746-022100-
SOUTHERN LAKE MICHIGAN

STATION/POSITION SKY/WX   TEMP    WIND        PRES    VSBY  WAVE
                          AIR SEA DIR/SP/G                  HT/PER
                          (F)     (DEG/KT/KT) (MB)    (MI)  (FT/S)
SOUTHERN BUOY              72 73  190/  4/  6 1012.8R         0
WAUKEGAN HARBOR            79     300/ 11/ 14   N/A
HARRISON CRIB              73      80/  8/  9   N/A
BURNHAM HARBOR             76      80/  4/ 11   N/A
CALUMET HARBOR             76      50/  4/  7 1011.4S
MICHIGAN CITY              73     360/  4/  5   N/A
MICHIGAN CITY 6N           74 76   40/  4/  4   N/A           0
ST. JOSEPH                 72 72  240/  4/  4   N/A           1/ 2
$$

ILZ025>027-034>036-040-047-049-050-058-095>099-022100-
WEST-CENTRAL ILLINOIS

CITY           SKY/WX    TMP DP  RH WIND       PRES   REMARKS
QUINCY         MOSUNNY   81  64  56 W9        29.97F HX  82
GALESBURG*     PTSUNNY   84  63  49 W8        29.95F HX  85
MACOMB*        PTSUNNY   81  64  55 W10       29.98S HX  82
JACKSONVILLE*  PTSUNNY   83  66  57 W8        29.98S HX  85
PITTSFIELD*    PTSUNNY   82  65  55 SW10      29.99S HX  84
$$

ILZ028>032-037-038-041>044-048-051>054-059>061-022100-
CENTRAL ILLINOIS

CITY           SKY/WX    TMP DP  RH WIND       PRES   REMARKS
PONTIAC        MOSUNNY   82  63  51 W8        29.94S HX  83
DECATUR        PTSUNNY   79  69  71 W6        29.96F HX  81
PEORIA         MOSUNNY   84  63  49 W12       29.95S HX  85
LACON*         MOSUNNY   82  61  49 W7        29.93S HX  82
LINCOLN*       PTSUNNY   84  65  51 SW7       29.92F HX  86
SPRINGFIELD    PTSUNNY   82  68  62 NW7       29.96F HX  85
TAYLORVILLE    PTSUNNY   79  68  69 W6        29.97F HX  81
$$

ILZ033-039-045-046-055>057-062-063-022100-
EAST-CENTRAL ILLINOIS

CITY           SKY/WX    TMP DP  RH WIND       PRES   REMARKS
CHAMPAIGN      PTSUNNY   78  68  71 W9        29.96F HX  80
DANVILLE*      PTSUNNY   78  69  73 SW8       29.93S HX  80
RANTOUL*       PTSUNNY   81  67  63 SW8       29.96S HX  84
MATTOON        PTSUNNY   78  67  68 VRB3      29.96F HX  80
PARIS*         CLOUDY    80  69  69 W3        29.97F HX  82
$$

ILZ079-100>102-022100-
SOUTHWEST ILLINOIS

CITY           SKY/WX    TMP DP  RH WIND       PRES   REMARKS
BELLEVILLE     PTSUNNY   80  72  75 NW7       29.96F HX  84
CAHOKIA*       PTSUNNY   82  69  64 NW7       29.97F HX  85
SPARTA*        CLOUDY    78  71  76 NW5       29.99F HX  81
$$

ILZ064>066-069>071-074>076-080>082-084>086-088>090-092>094-022100-
SOUTH-CENTRAL ILLINOIS

CITY           SKY/WX    TMP DP  RH WIND       PRES   REMARKS
CARBONDALE     CLOUDY    81  67  62 NW3       29.98F HX  83
EFFINGHAM*     CLOUDY    79  68  68 W8        29.97F HX  81
MARION         CLOUDY    82  68  61 W9        29.98F HX  85
MT. VERNON     CLOUDY    79  70  73 CALM      29.98F HX  81
CENTRALIA*     CLOUDY    79  69  72 NW8       29.97F HX  82
SALEM*         CLOUDY    80  73  78 W8        29.98F HX  85
METROPOLIS*    PTSUNNY   84  71  66 W7        29.96F HX  89
$$

ILZ067-068-072-073-078-083-087-091-022100-
SOUTHEAST ILLINOIS

CITY           SKY/WX    TMP DP  RH WIND       PRES   REMARKS
LAWRENCEVILLE  CLOUDY    78  71  79 NW9       29.96F HX  80
FLORA*         PTSUNNY   77  70  79 NW7       29.98F
FAIRFIELD*     CLOUDY    79  75  89 W5        29.97F HX  82
HARRISBURG*    CLOUDY    83  70  64 W10       29.98F HX  86
ROBINSON*      CLOUDY    78  72  81 W7        29.97F HX  80
CARMI*         PTSUNNY   84  73  69 W12       29.96F HX  91
$$

ABBREVIATIONS USED IN REMARKS
   TC - TEMPERATURE IN CELSIUS
  WCI - WIND CHILL INDEX
   HX - HEAT INDEX
  VSB - VISIBILITY
$$



USA.gov is the U.S. government's official web portal to all federal, state and local government web resources and services.